| time (UTC) | temp F | wind direction | speed MPH | gust MPH | rain 1hr in | rain 24hr in | rain mn in | humidity % | barometer mb |
| 20260506175403 | 54 | 89 | 5.0 | 8.0 | 0.00 | 0.00 | 0.00 | 54 | 1014.0 |
| 20260506174503 | 54 | 82 | 5.0 | 7.0 | 0.00 | 0.00 | 0.00 | 54 | 1014.1 |
| 20260506173603 | 54 | 89 | 4.0 | 6.0 | 0.00 | 0.00 | 0.00 | 55 | 1014.0 |
| 20260506172703 | 54 | 93 | 5.0 | 10.0 | 0.00 | 0.00 | 0.00 | 54 | 1014.0 |
| 20260506171803 | 54 | 92 | 5.0 | 10.0 | 0.00 | 0.00 | 0.00 | 53 | 1014.0 |
| 20260506170903 | 55 | 81 | 4.0 | 7.0 | 0.00 | 0.00 | 0.00 | 54 | 1014.0 |
| 20260506170004 | 54 | 76 | 4.0 | 7.0 | 0.00 | 0.00 | 0.00 | 53 | 1014.0 |
| 20260506165618 | 54 | 81 | 4.0 | 7.0 | 0.00 | 0.00 | 0.00 | 53 | 1014.0 |
| 20260506164503 | 55 | 36 | 4.0 | 7.0 | 0.00 | 0.00 | 0.00 | 52 | 1014.0 |
| 20260506163603 | 55 | 62 | 4.0 | 6.0 | 0.00 | 0.00 | 0.00 | 52 | 1013.9 |
| 20260506162703 | 55 | 36 | 4.0 | 8.0 | 0.00 | 0.00 | 0.00 | 52 | 1013.9 |
| 20260506161803 | 55 | 57 | 5.0 | 8.0 | 0.00 | 0.00 | 0.00 | 52 | 1013.9 |
| 20260506160903 | 56 | 75 | 4.0 | 9.0 | 0.00 | 0.00 | 0.00 | 53 | 1013.9 |
| 20260506160003 | 56 | 15 | 4.0 | 9.0 | 0.00 | 0.00 | 0.00 | 51 | 1014.0 |
| 20260506155403 | 56 | 345 | 3.0 | 6.0 | 0.00 | 0.00 | 0.00 | 49 | 1013.9 |
| 20260506154717 | 56 | 16 | 3.0 | 6.0 | 0.00 | 0.00 | 0.00 | 48 | 1013.8 |
| 20260506153818 | 55 | 86 | 4.0 | 7.0 | 0.00 | 0.00 | 0.00 | 52 | 1013.9 |
| 20260506152703 | 56 | 91 | 4.0 | 7.0 | 0.00 | 0.00 | 0.00 | 52 | 1013.9 |
| 20260506151803 | 56 | 57 | 4.0 | 8.0 | 0.00 | 0.00 | 0.00 | 53 | 1014.0 |
| 20260506151116 | 55 | 90 | 5.0 | 9.0 | 0.00 | 0.00 | 0.00 | 54 | 1014.1 |
| 20260506150003 | 55 | 97 | 6.0 | 9.0 | 0.00 | 0.00 | 0.00 | 54 | 1014.0 |
| 20260506145403 | 55 | 90 | 5.0 | 9.0 | 0.00 | 0.00 | 0.00 | 52 | 1014.2 |
| 20260506144503 | 55 | 359 | 5.0 | 9.0 | 0.00 | 0.00 | 0.00 | 53 | 1014.2 |
| 20260506143603 | 56 | 34 | 6.0 | 10.0 | 0.00 | 0.00 | 0.00 | 54 | 1014.2 |
| 20260506142703 | 55 | 33 | 5.0 | 8.0 | 0.00 | 0.00 | 0.00 | 54 | 1014.2 |
| 20260506142016 | 54 | 59 | 5.0 | 7.0 | 0.00 | 0.00 | 0.00 | 55 | 1014.4 |
| 20260506140903 | 55 | 64 | 5.0 | 10.0 | 0.00 | 0.00 | 0.00 | 55 | 1014.5 |
| 20260506140003 | 54 | 60 | 5.0 | 9.0 | 0.00 | 0.00 | 0.00 | 54 | 1014.5 |
| 20260506135617 | 55 | 28 | 5.0 | 9.0 | 0.00 | 0.00 | 0.00 | 53 | 1014.4 |
| 20260506134718 | 55 | 6 | 6.0 | 10.0 | 0.00 | 0.00 | 0.00 | 54 | 1014.5 |
| 20260506133603 | 54 | 68 | 3.0 | 8.0 | 0.00 | 0.00 | 0.00 | 57 | 1014.6 |
| 20260506132917 | 54 | 71 | 5.0 | 10.0 | 0.00 | 0.00 | 0.00 | 56 | 1014.7 |
| 20260506132018 | 54 | 95 | 8.0 | 12.0 | 0.00 | 0.00 | 0.00 | 59 | 1014.7 |
| 20260506130903 | 55 | 55 | 6.0 | 10.0 | 0.00 | 0.00 | 0.00 | 57 | 1014.7 |
| 20260506130003 | 54 | 105 | 8.0 | 13.0 | 0.00 | 0.00 | 0.00 | 57 | 1014.7 |
| 20260506125403 | 54 | 77 | 5.0 | 10.0 | 0.00 | 0.00 | 0.00 | 57 | 1014.7 |
| 20260506124503 | 54 | 56 | 5.0 | 11.0 | 0.00 | 0.00 | 0.00 | 55 | 1014.7 |
| 20260506123603 | 54 | 44 | 5.0 | 10.0 | 0.00 | 0.00 | 0.00 | 56 | 1014.7 |
| 20260506122703 | 53 | 49 | 6.0 | 10.0 | 0.00 | 0.00 | 0.00 | 55 | 1014.7 |
| 20260506121803 | 54 | 50 | 6.0 | 11.0 | 0.00 | 0.00 | 0.00 | 56 | 1014.7 |
| 20260506121117 | 53 | 84 | 7.0 | 11.0 | 0.00 | 0.00 | 0.00 | 54 | 1014.9 |
| 20260506120219 | 53 | 42 | 6.0 | 11.0 | 0.00 | 0.00 | 0.00 | 56 | 1014.9 |
| 20260506115403 | 54 | 19 | 6.0 | 10.0 | 0.00 | 0.00 | 0.00 | 55 | 1014.8 |
| 20260506114503 | 53 | 44 | 7.0 | 11.0 | 0.00 | 0.00 | 0.00 | 53 | 1014.9 |
| 20260506113603 | 53 | 77 | 7.0 | 12.0 | 0.00 | 0.00 | 0.00 | 54 | 1014.9 |
| 20260506112918 | 53 | 81 | 7.0 | 14.0 | 0.00 | 0.00 | 0.00 | 55 | 1015.0 |
| 20260506111803 | 52 | 3 | 6.0 | 10.0 | 0.00 | 0.00 | 0.00 | 57 | 1015.0 |
| 20260506110903 | 52 | 43 | 5.0 | 10.0 | 0.00 | 0.00 | 0.00 | 60 | 1014.9 |
| 20260506110003 | 52 | 34 | 7.0 | 11.0 | 0.00 | 0.00 | 0.00 | 59 | 1015.0 |
| 20260506105403 | 52 | 7 | 7.0 | 11.0 | 0.00 | 0.00 | 0.00 | 58 | 1015.1 |
| 20260506104503 | 52 | 8 | 5.0 | 10.0 | 0.00 | 0.00 | 0.00 | 63 | 1015.1 |
| 20260506103818 | 51 | 25 | 5.0 | 8.0 | 0.00 | 0.00 | 0.00 | 60 | 1015.1 |
| 20260506102703 | 50 | 29 | 6.0 | 10.0 | 0.00 | 0.00 | 0.00 | 64 | 1015.1 |
| 20260506102017 | 50 | 17 | 6.0 | 10.0 | 0.00 | 0.00 | 0.00 | 63 | 1015.1 |
| 20260506100903 | 50 | 11 | 5.0 | 8.0 | 0.00 | 0.00 | 0.00 | 64 | 1015.2 |
| 20260506100003 | 50 | 77 | 5.0 | 6.0 | 0.00 | 0.00 | 0.00 | 65 | 1015.1 |
| 20260506095617 | 50 | 74 | 5.0 | 6.0 | 0.00 | 0.00 | 0.00 | 65 | 1015.2 |
| 20260506094504 | 49 | 48 | 4.0 | 8.0 | 0.00 | 0.00 | 0.00 | 66 | 1015.1 |
| 20260506093603 | 49 | 358 | 6.0 | 10.0 | 0.00 | 0.00 | 0.00 | 67 | 1015.1 |
| 20260506092703 | 48 | 345 | 6.0 | 10.0 | 0.00 | 0.00 | 0.00 | 68 | 1015.0 |
| 20260506091803 | 49 | 60 | 4.0 | 10.0 | 0.00 | 0.00 | 0.00 | 68 | 1015.1 |
| 20260506091118 | 48 | 97 | 6.0 | 10.0 | 0.00 | 0.00 | 0.00 | 68 | 1015.1 |
| 20260506090003 | 47 | 84 | 7.0 | 11.0 | 0.00 | 0.00 | 0.00 | 68 | 1015.1 |
| 20260506085403 | 47 | 58 | 5.0 | 8.0 | 0.00 | 0.00 | 0.00 | 68 | 1015.1 |
| 20260506084503 | 47 | 36 | 5.0 | 9.0 | 0.00 | 0.00 | 0.00 | 72 | 1015.1 |
| 20260506083817 | 46 | 22 | 7.0 | 11.0 | 0.00 | 0.00 | 0.00 | 73 | 1015.1 |
| 20260506082917 | 46 | 27 | 7.0 | 12.0 | 0.00 | 0.00 | 0.00 | 72 | 1015.1 |
| 20260506081803 | 46 | 44 | 5.0 | 10.0 | 0.00 | 0.00 | 0.00 | 75 | 1015.1 |
| 20260506080903 | 46 | 38 | 6.0 | 10.0 | 0.00 | 0.00 | 0.00 | 74 | 1015.0 |
| 20260506072703 | 45 | 24 | 6.0 | 10.0 | 0.00 | 0.00 | 0.00 | 77 | 1015.0 |
| 20260506071803 | 45 | 24 | 7.0 | 11.0 | 0.00 | 0.00 | 0.00 | 78 | 1015.0 |
| 20260506070904 | 45 | 44 | 6.0 | 11.0 | 0.00 | 0.00 | 0.00 | 78 | 1015.0 |
| 20260506061803 | 44 | 60 | 5.0 | 9.0 | 0.00 | 0.00 | 0.00 | 79 | 1014.6 |
| 20260506060903 | 44 | 62 | 5.0 | 9.0 | 0.00 | 0.00 | 0.00 | 79 | 1014.7 |
| 20260506050903 | 44 | 61 | 5.0 | 9.0 | 0.00 | 0.00 | 0.00 | 82 | 1014.2 |
| 20260506044503 | 44 | 36 | 5.0 | 8.0 | 0.00 | 0.00 | 0.00 | 82 | 1014.1 |
| 20260506043603 | 44 | 36 | 5.0 | 9.0 | 0.00 | 0.00 | 0.00 | 82 | 1014.1 |
| 20260506042703 | 44 | 45 | 5.0 | 8.0 | 0.00 | 0.00 | 0.00 | 82 | 1014.0 |
| 20260506041803 | 45 | 30 | 6.0 | 9.0 | 0.00 | 0.00 | 0.00 | 81 | 1014.1 |
| 20260506040903 | 45 | 42 | 5.0 | 7.0 | 0.00 | 0.00 | 0.00 | 81 | 1014.1 |
| 20260506040217 | 45 | 60 | 6.0 | 11.0 | 0.00 | 0.00 | 0.00 | 81 | 1014.1 |
| 20260506035403 | 45 | 57 | 5.0 | 9.0 | 0.00 | 0.00 | 0.00 | 81 | 1014.2 |
| 20260506034503 | 45 | 58 | 5.0 | 8.0 | 0.00 | 0.00 | 0.00 | 83 | 1014.1 |
| 20260506033603 | 45 | 44 | 5.0 | 10.0 | 0.00 | 0.00 | 0.00 | 83 | 1014.1 |
| 20260506032704 | 45 | 45 | 2.0 | 2.0 | 0.00 | 0.00 | 0.00 | 83 | 1014.2 |
| 20260506031803 | 46 | 57 | 4.0 | 9.0 | 0.00 | 0.00 | 0.00 | 83 | 1014.1 |
| 20260506030903 | 46 | 58 | 5.0 | 9.0 | 0.00 | 0.00 | 0.00 | 83 | 1014.2 |
| 20260506030003 | 46 | 47 | 5.0 | 8.0 | 0.00 | 0.00 | 0.00 | 82 | 1014.2 |
| 20260506025403 | 46 | 35 | 5.0 | 8.0 | 0.00 | 0.00 | 0.00 | 82 | 1014.2 |
| 20260506024503 | 46 | 66 | 2.0 | 3.0 | 0.00 | 0.00 | 0.00 | 82 | 1014.1 |
| 20260506023603 | 46 | 66 | 5.0 | 8.0 | 0.00 | 0.00 | 0.00 | 82 | 1014.2 |
| 20260506022703 | 46 | 77 | 5.0 | 8.0 | 0.00 | 0.00 | 0.00 | 81 | 1014.2 |
| 20260506021803 | 46 | 81 | 5.0 | 7.0 | 0.00 | 0.00 | 0.00 | 80 | 1014.2 |
| 20260506021117 | 46 | 78 | 6.0 | 12.0 | 0.00 | 0.00 | 0.00 | 80 | 1014.2 |
| 20260506020003 | 46 | 83 | 8.0 | 12.0 | 0.00 | 0.00 | 0.00 | 79 | 1014.2 |
| 20260506015403 | 46 | 73 | 8.0 | 13.0 | 0.00 | 0.00 | 0.00 | 79 | 1014.1 |
| 20260506014503 | 47 | 54 | 7.0 | 12.0 | 0.00 | 0.00 | 0.00 | 78 | 1014.1 |
| 20260506013603 | 47 | 82 | 7.0 | 11.0 | 0.00 | 0.00 | 0.00 | 79 | 1014.2 |
| 20260506012703 | 47 | 41 | 7.0 | 14.0 | 0.00 | 0.00 | 0.00 | 80 | 1014.2 |
| 20260506011803 | 47 | 70 | 3.0 | 9.0 | 0.00 | 0.00 | 0.00 | 81 | 1014.3 |
| 20260506010903 | 48 | 70 | 3.0 | 9.0 | 0.00 | 0.00 | 0.00 | 81 | 1014.3 |
| 20260506010003 | 48 | 80 | 4.0 | 7.0 | 0.00 | 0.00 | 0.00 | 82 | 1014.4 |
| 20260506005403 | 48 | 78 | 6.0 | 10.0 | 0.00 | 0.00 | 0.00 | 82 | 1014.3 |
| 20260506004717 | 48 | 63 | 3.0 | 7.0 | 0.00 | 0.00 | 0.00 | 82 | 1014.3 |
| 20260506003604 | 48 | 71 | 4.0 | 8.0 | 0.00 | 0.00 | 0.00 | 82 | 1014.4 |
| 20260506002703 | 48 | 69 | 6.0 | 15.0 | 0.00 | 0.00 | 0.00 | 82 | 1014.4 |
| 20260506001803 | 48 | 66 | 6.0 | 15.0 | 0.00 | 0.00 | 0.00 | 82 | 1014.4 |
| 20260506001117 | 48 | 48 | 6.0 | 12.0 | 0.00 | 0.00 | 0.00 | 82 | 1014.5 |
| 20260506000004 | 48 | 51 | 5.0 | 9.0 | 0.00 | 0.00 | 0.00 | 82 | 1014.4 |
| 20260505235403 | 48 | 32 | 4.0 | 7.0 | 0.00 | 0.00 | 0.00 | 83 | 1014.3 |
| 20260505234503 | 48 | 34 | 4.0 | 6.0 | 0.00 | 0.00 | 0.00 | 83 | 1014.3 |
| 20260505233603 | 48 | 29 | 4.0 | 8.0 | 0.00 | 0.00 | 0.00 | 83 | 1014.3 |
| 20260505232918 | 48 | 29 | 5.0 | 8.0 | 0.00 | 0.00 | 0.00 | 82 | 1014.4 |
| 20260505231803 | 48 | 33 | 5.0 | 10.0 | 0.00 | 0.00 | 0.00 | 82 | 1014.5 |
| 20260505230903 | 48 | 26 | 5.0 | 8.0 | 0.00 | 0.00 | 0.00 | 82 | 1014.5 |
| 20260505230217 | 49 | 16 | 6.0 | 11.0 | 0.00 | 0.00 | 0.00 | 82 | 1014.5 |
| 20260505225403 | 48 | 14 | 6.0 | 8.0 | 0.00 | 0.00 | 0.00 | 81 | 1014.3 |
| 20260505224504 | 49 | 6 | 6.0 | 9.0 | 0.00 | 0.00 | 0.00 | 81 | 1014.5 |
| 20260505223818 | 48 | 360 | 6.0 | 9.0 | 0.00 | 0.00 | 0.00 | 81 | 1014.5 |
| 20260505222703 | 49 | 354 | 5.0 | 10.0 | 0.00 | 0.00 | 0.00 | 80 | 1014.5 |
| 20260505221803 | 49 | 353 | 6.0 | 9.0 | 0.00 | 0.00 | 0.00 | 80 | 1014.4 |
| 20260505220903 | 49 | 351 | 3.0 | 4.0 | 0.00 | 0.00 | 0.00 | 80 | 1014.5 |
| 20260505220003 | 49 | 348 | 4.0 | 9.0 | 0.00 | 0.00 | 0.00 | 80 | 1014.4 |
| 20260505215403 | 49 | 339 | 5.0 | 8.0 | 0.00 | 0.00 | 0.00 | 80 | 1014.5 |
| 20260505214718 | 49 | 343 | 6.0 | 10.0 | 0.00 | 0.00 | 0.00 | 79 | 1014.4 |
| 20260505213603 | 49 | 331 | 3.0 | 9.0 | 0.00 | 0.00 | 0.00 | 79 | 1014.3 |
| 20260505212703 | 49 | 345 | 6.0 | 9.0 | 0.00 | 0.00 | 0.00 | 78 | 1014.4 |
| 20260505212018 | 49 | 346 | 5.0 | 9.0 | 0.00 | 0.00 | 0.00 | 78 | 1014.3 |
| 20260505211118 | 49 | 1 | 6.0 | 9.0 | 0.00 | 0.00 | 0.00 | 78 | 1014.4 |
| 20260505210004 | 49 | 357 | 7.0 | 11.0 | 0.00 | 0.00 | 0.00 | 78 | 1014.3 |
| 20260505205618 | 49 | 353 | 7.0 | 11.0 | 0.00 | 0.00 | 0.00 | 78 | 1014.2 |
| 20260505204503 | 50 | 323 | 4.0 | 9.0 | 0.00 | 0.00 | 0.00 | 77 | 1014.3 |
| 20260505203817 | 50 | 353 | 5.0 | 8.0 | 0.00 | 0.00 | 0.00 | 77 | 1014.3 |
| 20260505202703 | 50 | 346 | 6.0 | 10.0 | 0.00 | 0.00 | 0.00 | 77 | 1014.4 |
| 20260505201803 | 50 | 346 | 7.0 | 11.0 | 0.00 | 0.00 | 0.00 | 76 | 1014.3 |
| 20260505201117 | 50 | 3 | 7.0 | 11.0 | 0.00 | 0.00 | 0.00 | 76 | 1014.2 |
| 20260505200003 | 50 | 335 | 6.0 | 9.0 | 0.00 | 0.00 | 0.00 | 76 | 1014.2 |
| 20260505195618 | 50 | 340 | 7.0 | 11.0 | 0.00 | 0.00 | 0.00 | 75 | 1014.1 |
| 20260505194503 | 50 | 349 | 7.0 | 11.0 | 0.00 | 0.00 | 0.00 | 74 | 1014.1 |
| 20260505193603 | 50 | 356 | 6.0 | 9.0 | 0.00 | 0.00 | 0.00 | 74 | 1014.0 |
| 20260505192918 | 50 | 349 | 7.0 | 13.0 | 0.00 | 0.00 | 0.00 | 74 | 1013.9 |
| 20260505191803 | 51 | 353 | 7.0 | 12.0 | 0.00 | 0.00 | 0.00 | 73 | 1013.9 |
| 20260505190903 | 51 | 356 | 8.0 | 13.0 | 0.00 | 0.00 | 0.00 | 73 | 1013.9 |
| 20260505190218 | 51 | 323 | 8.0 | 14.0 | 0.00 | 0.00 | 0.00 | 74 | 1013.9 |
| 20260505185403 | 51 | 335 | 9.0 | 14.0 | 0.00 | 0.00 | 0.00 | 74 | 1013.8 |
| 20260505184503 | 52 | 358 | 6.0 | 10.0 | 0.00 | 0.00 | 0.00 | 73 | 1013.8 |
| 20260505183603 | 52 | 329 | 7.0 | 13.0 | 0.00 | 0.00 | 0.00 | 72 | 1013.8 |
| 20260505182703 | 52 | 6 | 8.0 | 13.0 | 0.00 | 0.00 | 0.00 | 71 | 1013.7 |
| 20260505181803 | 53 | 349 | 6.0 | 11.0 | 0.00 | 0.00 | 0.00 | 70 | 1013.8 |
| 20260505180903 | 52 | 346 | 9.0 | 14.0 | 0.00 | 0.00 | 0.00 | 71 | 1013.8 |
| 20260505180003 | 52 | 331 | 8.0 | 13.0 | 0.00 | 0.00 | 0.00 | 71 | 1013.8 |